[[{"header":{"parameterUnit":"m.s-1","parameterCategory":1,"la1":30.2991,"la2":30.254,"lo1":-89.0895,"lo2":-89.0444,"dy":0.0017,"dx":0.0017,"nx":28,"ny":28,"refTime":"2025-03-29T03:00:00:Z","depth":0,"parameterNumber":2,"parameterNumberName":"U-component_of_WINDS"},"data":[0,0,0,0,0,0,0,0,0,0,0,0,0,0,0,0,0,0,0,0,0,0,0,0,0,0,0,0,0,0,0,0,0,0,0,0,0,0,0,0,0,0,0,0,0,0,0,0,0,0,0,0,0,0,0,0,0,0,-5.8897,-5.8897,0,-5.8955,-5.8955,-5.8956,-5.8905,-5.8903,-5.8901,-5.8899,-5.8956,-5.8959,-5.8963,0,0,0,0,0,0,0,0,0,0,0,0,0,-5.874,-5.8744,-5.8897,-5.8897,-5.8898,-5.8955,-5.8955,-5.8956,-5.8905,-5.8903,-5.89,-5.8898,-5.8955,-5.8959,-5.8963,0,0,0,0,0,0,0,0,0,0,0,0,0,-5.8804,-5.8745,-5.8897,-5.888,-5.8879,-5.8955,-5.8955,-5.8956,-5.8906,-5.8903,-5.8899,-5.8897,-5.8953,-5.8958,-5.8964,-5.9059,0,0,-5.8979,-5.8982,0,0,0,0,0,0,0,0,-5.8801,-5.881,-5.8881,-5.8881,-5.888,-5.8919,-5.8921,-5.8991,-5.8907,-5.8895,-5.8899,-5.8895,-5.8946,-5.8952,-5.8969,-5.9061,-5.9064,-5.898,-5.8983,-5.8985,-5.8987,0,0,0,0,0,0,0,-5.8796,-5.8807,-5.8919,-5.8882,-5.8882,-5.8869,-5.8874,-5.8934,-5.8938,-5.8896,-5.8893,-5.89,-5.8945,-5.8965,-5.897,-5.9065,-5.898,-5.8984,-5.8988,-5.899,-5.9237,-5.924,0,0,0,0,0,0,-5.8794,-5.8804,-5.8918,-5.8921,-5.8832,-5.8874,-5.888,-5.891,-5.8937,-5.8938,-5.8903,-5.8898,-5.8957,-5.8964,-5.8972,-5.9084,-5.8985,-5.899,-5.8993,-5.9234,-5.9238,-5.9241,0,0,0,0,0,0,-5.8791,-5.8805,-5.8915,-5.8862,-5.8875,-5.888,-5.8914,-5.8913,-5.8932,-5.8942,-5.8942,-5.8922,-5.8955,-5.8965,-5.9038,-5.9085,-5.8993,-5.8997,-5.923,-5.9235,-5.924,-5.9309,0,0,0,0,0,0,-5.8787,-5.8804,-5.884,-5.8863,-5.8878,-5.898,-5.8917,-5.8916,-5.8941,-5.8935,-5.896,-5.8961,-5.8953,-5.903,-5.9043,-5.9091,-5.9001,-5.9225,-5.9232,-5.9238,-5.9303,-5.9316,-5.9328,0,0,0,0,0,-5.8781,-5.8857,-5.8842,-5.8856,-5.8923,-5.8983,-5.8991,-5.8981,-5.8945,-5.8981,-5.8988,-5.896,-5.9079,-5.9038,-5.9052,-5.9102,-5.9222,-5.923,-5.9237,-5.9297,-5.9314,-5.9328,0,0,0,0,0,0,-5.8838,-5.8859,-5.8843,-5.8929,-5.8955,-5.8974,-5.9019,-5.8999,-5.9035,-5.9028,-5.9014,-5.902,-5.9096,-5.9107,-5.9061,-5.9196,-5.9145,-5.9155,-5.9185,-5.9201,-5.9213,-5.9208,-5.9006,0,0,0,0,0,-5.8861,-5.8908,-5.8924,-5.8998,-5.9012,-5.9014,-5.9039,-5.903,-5.9056,-5.9066,-5.9078,-5.9103,-5.9146,-5.9175,-5.9215,-5.9305,-5.9309,-5.9347,-5.936,-5.937,-5.9378,-5.9426,-5.9443,-5.9267,-5.9267,-5.9267,0,0,-5.8908,-5.8925,-5.8956,-5.901,-5.9029,-5.9077,-5.9023,-5.9077,-5.9112,-5.9074,-5.9142,-5.9153,-5.9181,-5.9262,-5.9299,-5.9274,-5.9429,-5.938,-5.9388,-5.9391,-5.9436,-5.9452,-5.9467,-5.9272,-5.9271,-5.927,0,0,-5.9017,-5.9036,-5.9099,-5.912,-5.915,-5.9151,-5.9166,-5.919,-5.9195,-5.9265,-5.9237,-5.9279,-5.9354,-5.9374,-5.9395,-5.9515,-5.949,-5.9529,-5.9593,-5.964,-5.9653,-5.9666,-5.9707,-5.9722,-5.9538,-5.9538,-5.9538,0,-5.9071,-5.9143,-5.9134,-5.919,-5.9214,-5.9184,-5.9247,-5.9268,-5.9309,-5.9326,-5.9298,-5.9391,-5.9408,-5.9493,-5.9523,-5.9541,-5.9558,-5.9524,-5.9653,-5.9665,-5.9676,-5.9715,-5.973,-5.9542,-5.9542,-5.9542,-5.9541,0,-5.9207,-5.9258,-5.9306,-5.9347,-5.9377,-5.9437,-5.9436,-5.9468,-5.9457,-5.9461,-5.9532,-5.9552,-5.9595,-5.9616,-5.9605,-5.97,-5.9684,-5.9655,-5.9602,-5.9697,-5.9733,-5.9748,-5.9549,-5.9547,-5.9546,-5.9545,0,0,-5.9351,-5.9388,-5.9406,-5.9424,-5.9456,-5.9495,-5.9553,-5.9597,-5.9623,-5.9654,-5.9702,-5.9767,-5.974,-5.9764,-5.9755,-5.9797,-5.9889,-5.9763,-5.9763,-5.9783,-5.9994,-6.0014,-6.0031,-5.9875,-5.9878,-5.988,-5.9991,0,-5.946,-5.9562,-5.9556,-5.9651,-5.9697,-5.9671,-5.9722,-5.9746,-5.9753,-5.9793,-5.98,-5.9845,-5.9808,-5.9821,-5.9862,-5.987,-5.9931,-5.9862,-5.9917,-5.9919,-5.9908,-6.005,-6.0071,-6.0175,-6.0005,-6.0008,-6.0009,0,-5.96,-5.9636,-5.9736,-5.9761,-5.978,-5.9826,-5.9866,-5.9905,-5.9933,-5.9935,-5.9962,-5.9947,-6.0006,-5.9956,-6.0036,-5.9989,-6.0012,-6.002,-6.0023,-6.0025,-5.9968,-6.0054,-6.0208,-6.0222,-6.0032,-6.003,-6.0029,0,-5.9692,-5.9766,-5.9835,-5.9852,-5.9884,-5.9916,-5.9931,-5.9956,-5.9983,-6.0018,-6.0035,-6.0076,-6.0098,-6.0131,-6.0128,-6.0091,-6.0209,-6.0158,-6.021,-6.021,-6.0233,-6.0231,-6.039,-6.0253,-6.0253,-6.0253,-6.0252,0,-5.9812,-5.9874,-5.9876,-5.9918,-5.9987,-5.9981,-6.0048,-6.006,-6.0083,-6.0126,-6.0107,-6.0148,-6.0143,-6.0184,-6.0183,-6.0249,-6.026,-6.0262,-6.026,-6.0262,-6.0261,-6.0274,-6.0266,-6.0257,-6.0256,-6.0255,-6.0254,0,-5.9925,-5.9929,-6.0003,-6.0028,-6.0036,-6.0085,-6.0106,-6.0146,-6.0151,-6.0207,-6.022,-6.0228,-6.0276,-6.0278,-6.0333,-6.0332,-6.0411,-6.0403,-6.0402,-6.0399,-6.045,-6.0445,-6.0621,-6.0643,-6.0494,-6.0496,-6.0497,0,-6.0,-6.0047,-6.0077,-6.0106,-6.0123,-6.0168,-6.0196,-6.0192,-6.0222,-6.0258,-6.0294,-6.034,-6.0377,-6.0455,-6.0465,-6.0508,-6.0498,-6.0558,-6.0504,-6.0505,-6.0496,-6.0493,-6.0497,-6.0567,-6.0568,-6.057,-6.0571,0,-6.0132,-6.0132,-6.0173,-6.0215,-6.0249,-6.0282,-6.0312,-6.0336,-6.0336,-6.037,-6.042,-6.0448,-6.0505,-6.0551,-6.0592,-6.0607,-6.0589,-6.0588,-6.0602,-6.0603,-6.0599,-6.06,-6.0427,-6.0583,-6.0582,-6.0581,-6.058,-6.058,-6.0226,-6.0267,-6.0295,-6.0341,-6.0364,-6.0393,-6.0432,-6.0443,-6.0484,-6.053,-6.0526,-6.0581,-6.0609,-6.0662,-6.0681,-6.0723,-6.0702,-6.0723,-6.0728,-6.0732,-6.0737,-6.0595,-6.0731,-6.0731,-6.073,-6.073,-6.073,0,-6.0356,-6.0373,-6.0416,-6.0459,-6.0496,-6.0478,-6.0511,-6.0542,-6.059,-6.0618,-6.0655,-6.0712,-6.0757,-6.0773,-6.0816,-6.0847,-6.084,-6.0858,-6.0854,-6.0858,-6.0754,-6.0736,-6.0864,-6.0864,-6.0864,-6.0864,-6.0863,-6.0863,-6.0427,-6.0494,-6.0498,-6.0576,-6.0593,-6.0646,-6.0667,-6.0693,-6.0716,-6.078,-6.0818,-6.0828,-6.0851,-6.0896,-6.0937,-6.094,-6.0956,-6.0978,-6.0978,-6.0879,-6.0865,-6.0852,-6.0836,-6.0982,-6.0982,-6.1078,-6.1079,-6.108]},{"header":{"parameterUnit":"m.s-1","parameterCategory":1,"la1":30.2991,"la2":30.254,"lo1":-89.0895,"lo2":-89.0444,"dy":0.0017,"dx":0.0017,"nx":28,"ny":28,"refTime":"2025-03-29T03:00:00:Z","depth":0,"parameterNumber":3,"parameterNumberName":"V-component_of_WINDS"},"data":[0,0,0,0,0,0,0,0,0,0,0,0,0,0,0,0,0,0,0,0,0,0,0,0,0,0,0,0,0,0,0,0,0,0,0,0,0,0,0,0,0,0,0,0,0,0,0,0,0,0,0,0,0,0,0,0,0,0,4.0439,4.0441,0,4.0588,4.059,4.0591,4.0632,4.0631,4.0631,4.063,4.0778,4.0783,4.0788,0,0,0,0,0,0,0,0,0,0,0,0,0,4.0187,4.0192,4.0439,4.0441,4.0443,4.0588,4.059,4.0592,4.0632,4.0631,4.063,4.0629,4.0777,4.0782,4.0788,0,0,0,0,0,0,0,0,0,0,0,0,0,4.0312,4.0193,4.0439,4.048,4.0486,4.0587,4.059,4.0592,4.0633,4.0631,4.063,4.0629,4.0775,4.0782,4.0789,4.0858,0,0,4.081,4.0814,0,0,0,0,0,0,0,0,4.0305,4.0322,4.0472,4.0478,4.0484,4.059,4.0556,4.0681,4.0633,4.0577,4.063,4.0628,4.0716,4.0728,4.0759,4.0865,4.0871,4.0811,4.0815,4.0818,4.082,0,0,0,0,0,0,0,4.0297,4.0315,4.0498,4.0475,4.0482,4.0491,4.0508,4.058,4.0652,4.0581,4.0585,4.0602,4.0719,4.0752,4.0763,4.0874,4.0811,4.0817,4.0822,4.0824,4.1047,4.1049,0,0,0,0,0,0,4.0281,4.0308,4.0493,4.0502,4.039,4.0497,4.0515,4.0557,4.0651,4.0664,4.0603,4.0603,4.074,4.0754,4.0768,4.0858,4.0818,4.0825,4.0829,4.1045,4.1047,4.1049,0,0,0,0,0,0,4.0276,4.0297,4.0487,4.0406,4.0431,4.0502,4.055,4.0561,4.0594,4.0668,4.068,4.0623,4.074,4.0758,4.0836,4.0863,4.0828,4.0835,4.1043,4.1046,4.1048,4.1035,0,0,0,0,0,0,4.0268,4.0295,4.0322,4.0407,4.0435,4.0553,4.0551,4.0565,4.0606,4.0608,4.069,4.0702,4.074,4.0826,4.0843,4.0872,4.084,4.1041,4.1045,4.1048,4.1034,4.1037,4.104,0,0,0,0,0,4.0259,4.0311,4.0324,4.0346,4.0471,4.0555,4.0571,4.0615,4.0608,4.0637,4.0684,4.07,4.0857,4.0833,4.0854,4.0885,4.104,4.1044,4.1047,4.1032,4.1036,4.104,0,0,0,0,0,0,4.0226,4.0323,4.0338,4.0419,4.0479,4.0562,4.0598,4.0618,4.068,4.0679,4.073,4.0748,4.0823,4.0862,4.0833,4.0959,4.0949,4.0957,4.093,4.0935,4.0938,4.0927,4.0846,0,0,0,0,0,4.0229,4.029,4.037,4.0434,4.0464,4.0526,4.0564,4.0593,4.0656,4.0681,4.0735,4.0795,4.0858,4.0899,4.0961,4.104,4.1059,4.1071,4.1074,4.1077,4.1083,4.113,4.1137,4.1061,4.1061,4.1061,0,0,4.0234,4.0294,4.0329,4.0429,4.0479,4.0541,4.0547,4.0611,4.0657,4.0691,4.0769,4.081,4.0881,4.096,4.0998,4.0995,4.1108,4.1081,4.1083,4.1088,4.1134,4.1141,4.1148,4.1064,4.1063,4.1063,0,0,4.0275,4.0327,4.0387,4.0437,4.0514,4.0555,4.0569,4.065,4.068,4.076,4.0787,4.0842,4.0949,4.0999,4.1039,4.1102,4.1119,4.1121,4.1137,4.1182,4.1188,4.1193,4.1217,4.1225,4.1127,4.1127,4.1127,0,4.0272,4.0367,4.0415,4.0479,4.0523,4.0558,4.062,4.0666,4.0757,4.0787,4.0783,4.092,4.097,4.1063,4.1079,4.1109,4.1127,4.1111,4.1183,4.1189,4.1195,4.1219,4.1227,4.1126,4.1127,4.1127,4.1127,0,4.036,4.0425,4.0464,4.0555,4.0603,4.0665,4.0722,4.0765,4.0791,4.0833,4.0914,4.0975,4.1052,4.1076,4.11,4.1173,4.1169,4.1173,4.1165,4.1201,4.1224,4.1234,4.1126,4.1126,4.1126,4.1126,0,0,4.0383,4.0502,4.0515,4.0558,4.0646,4.0697,4.0761,4.0838,4.0874,4.0937,4.0992,4.1084,4.109,4.1134,4.1165,4.1204,4.1253,4.1204,4.1207,4.1212,4.1338,4.1335,4.1344,4.1264,4.1266,4.1268,4.1333,0,4.0437,4.0555,4.0601,4.0696,4.0758,4.0794,4.085,4.091,4.0951,4.1009,4.1054,4.1119,4.1121,4.1149,4.1189,4.1238,4.1279,4.1234,4.1317,4.1319,4.1299,4.1356,4.1353,4.1411,4.1342,4.1343,4.1344,0,4.0514,4.0581,4.0683,4.0766,4.0793,4.0843,4.0918,4.0973,4.1042,4.107,4.1121,4.115,4.1219,4.1206,4.1302,4.1271,4.1308,4.1337,4.134,4.135,4.1334,4.1368,4.143,4.1439,4.1359,4.1358,4.1356,0,4.0523,4.0637,4.0714,4.0749,4.0847,4.0882,4.0924,4.0992,4.1036,4.1101,4.113,4.1202,4.1241,4.1296,4.1344,4.133,4.1436,4.1426,4.1461,4.1459,4.1481,4.1479,4.1551,4.1504,4.1503,4.1503,4.1503,0,4.0579,4.064,4.072,4.0767,4.0838,4.089,4.0958,4.1002,4.1063,4.1119,4.1154,4.1206,4.1265,4.1325,4.1363,4.1437,4.1454,4.1479,4.1488,4.1476,4.1473,4.1501,4.1499,4.1506,4.1505,4.1505,4.1504,0,4.06,4.0656,4.0743,4.0829,4.0852,4.0901,4.0974,4.1022,4.1065,4.1136,4.1156,4.1224,4.1297,4.135,4.1442,4.1468,4.1548,4.1557,4.1525,4.153,4.1562,4.1559,4.1654,4.167,4.1611,4.1612,4.1612,0,4.0632,4.0681,4.0774,4.0815,4.0858,4.0923,4.0969,4.1023,4.1069,4.1152,4.119,4.1265,4.1328,4.1442,4.1499,4.1571,4.1583,4.1611,4.1593,4.1581,4.1585,4.1581,4.1587,4.1614,4.1614,4.1614,4.1614,0,4.0684,4.071,4.0775,4.0851,4.0905,4.0967,4.1029,4.1061,4.1126,4.1176,4.1251,4.13,4.1397,4.1471,4.1549,4.1592,4.1615,4.162,4.1632,4.162,4.1601,4.1613,4.1533,4.1617,4.1617,4.1617,4.1617,4.1617,4.0713,4.0759,4.0832,4.0904,4.0957,4.1015,4.1065,4.1116,4.118,4.1264,4.1291,4.137,4.1439,4.1547,4.159,4.1652,4.1652,4.1668,4.1673,4.1677,4.1677,4.1591,4.1666,4.1666,4.1666,4.1666,4.1666,0,4.0767,4.0817,4.0883,4.097,4.1027,4.1045,4.1115,4.1162,4.1231,4.1294,4.1357,4.1444,4.1517,4.1581,4.1657,4.1695,4.1707,4.1713,4.1711,4.1721,4.1672,4.1655,4.1702,4.1702,4.1702,4.1702,4.1702,4.1702,4.0802,4.0882,4.0916,4.1023,4.1072,4.115,4.1189,4.1243,4.1294,4.1391,4.1453,4.1495,4.1559,4.164,4.1708,4.1725,4.1752,4.1755,4.1775,4.1728,4.1724,4.172,4.1704,4.1761,4.1761,4.1819,4.1819,4.182]}]]